Regional Weather Roundup
Issued by NWS Albany, NY

Home | Current Version | Previous Version | Graphics & Text | Print | Product List | Glossary On
Versions: 1 2 3 4 5 6 7 8 9 10 11 12 13 14 15 16 17 18 19 20 21 22 23 24 25 26 27 28 29 30 31 32 33 34 35 36 37 38 39 40 41 42 43 44 45 46 47 48 49 50
000
ASUS41 KALY 140010
RWRALY

NEW YORK STATE HOURLY WEATHER ROUNDUP
NATIONAL WEATHER SERVICE ALBANY NY
800 PM EDT SUN JUL 13 2014

NOTE: "FAIR" INDICATES FEW OR NO CLOUDS BELOW 12,000 FEET WITH NO
SIGNIFICANT WEATHER AND/OR NO OBSTRUCTIONS TO VISIBILITY.

NYZ032-033-038>043-046>054-057>066-NYZ062>081-140100-
EAST


CITY           SKY/WX    TMP DP  RH WIND       PRES   REMARKS
ALBANY         CLOUDY    75  71  87 S14       29.82S
GLENS FALLS    LGT RAIN  74  72  93 SW7       29.81R FOG
POUGHKEEPSIE   TSTM      74  70  87 E6        29.88R
NEWBURGH         N/A     79  73  83 S12       29.91R
MONTGOMERY     CLOUDY    80  72  76 S6        29.88R
WHITE PLAINS   PTCLDY    74  70  87 S9        29.92R
ISLIP          MOCLDY    75  69  81 S16G26    29.93S
NEW YORK CITY  MOCLDY    77  69  76 S10       29.90S
CENTRAL PARK   PTCLDY    78  70  76 VRB5      29.93S
$$

NYZ005>009-017-018-044>046-055-056-140100-
CENTRAL


CITY           SKY/WX    TMP DP  RH WIND       PRES   REMARKS
FULTON         MOCLDY    76  71  85 SW7       29.82R
SYRACUSE       MOCLDY    78  69  73 W13       29.82R
ROME           MOCLDY    74  71  91 W7        29.82R
ELMIRA         MOCLDY    75  72  90 CALM      29.87R
BINGHAMTON     CLOUDY    68  67  96 SW6       29.91R
$$

NYZ026>034-041>043-140100-
NORTH


CITY           SKY/WX    TMP DP  RH WIND       PRES   REMARKS
WATERTOWN      PTCLDY    75  66  73 SW12G21   29.78R
FORT DRUM      NOT AVBL
MASSENA        PTCLDY    75  70  84 SW13      29.72R
SARANAC LAKE   CLOUDY    69  67  93 SW9       29.81R FOG
PLATTSBURGH    CLOUDY    74  70  87 S3        29.74R
$$

NYZ001>004-010>016-019>021-140100-
WEST


CITY           SKY/WX    TMP DP  RH WIND       PRES   REMARKS
NIAGARA FALLS  PTCLDY    77  66  68 SW12      29.82R
BUFFALO        PTCLDY    75  67  76 SW13      29.84R
DUNKIRK        PTCLDY    76  67  73 SW10      29.86S
JAMESTOWN      PTCLDY    72  63  73 W8        29.92S
WELLSVILLE     PTCLDY    73  65  75 W8        29.94R
ROCHESTER      PTCLDY    78  70  76 SW9       29.83R
PENN YAN       PTCLDY    77  68  73 SW7       29.86R
$$

             KEY
       WCI = WIND CHILL INDEX
       VSB = VISIBILITY
       HX  = HEAT INDEX
$$


USA.gov is the U.S. government's official web portal to all federal, state and local government web resources and services.